Flag for U.S.A. Weather past 2 weeks in Babylon, New York, U.S.A.

Now
51 °F

Passing clouds.


Feels Like: 49 °F
Forecast: 58 / 72 °F
Wind: 6 mph from Northeast

Location: Republic Airport

Current Time: Sep 20, 2014 at 6:56:38 AM

Latest Report: Sep 20, 2014 at 5:53 AM


Visibility: 10 mi

Pressure: 30.33 "Hg

Humidity: 86%

Dew point: 47 °F

Location of BabylonLocation

Historic Weather in Babylon — Graph

°F

Babylon temperature yesterday

Maximum temperature yesterday: 66 °F (at 2:53 PM)
Minimum temperature yesterday: 53 °F (at 10:53 PM)
Average temperature yesterday: 59 °F

Past Weeks' High & Low Weather Summary

 TemperatureHumidityPressure
High85 °F (Sep 6, 2:53 PM)97% (Sep 6, 3:53 AM)30.39 "Hg (Sep 6, 3:53 AM)
Low51 °F (Sep 20, 5:53 AM)33% (Sep 17, 2:53 PM)29.82 "Hg (Sep 6, 4:53 PM)
Average66 °F71%30.10 "Hg
* Reported Sep 5 5:53 AM — Sep 20 5:53 AM, Babylon, Weather by CustomWeather, © 2014

Note: Actual official high and low records may vary slightly from our data, if they occured in-between our weather recording intervals... More about our weather records

Advertising

Babylon weather history for previous 24 hours

 ConditionsComfort  
Time TempWeatherWind HumidityBarometerVisibility
5:53 AM
Sep 20
51 °FPassing clouds.6 mph86%30.33 "Hg10 mi
4:53 AM52 °FClear.5 mph86%30.33 "Hg10 mi
3:53 AM52 °FPassing clouds.5 mph83%30.33 "Hg10 mi
2:53 AM53 °FClear.6 mph80%30.32 "Hg10 mi
1:53 AM54 °FClear.No wind74%30.33 "Hg10 mi
12:53 AM54 °FPassing clouds.5 mph74%30.35 "Hg10 mi
11:53 PM
Sep 19
54 °FPassing clouds.3 mph72%30.37 "Hg10 mi
10:53 PM53 °FClear.3 mph74%30.39 "Hg10 mi
9:53 PM56 °FClear.3 mph67%30.39 "Hg10 mi
8:53 PM57 °FClear.5 mph67%30.39 "Hg10 mi
7:53 PM58 °FSunny.7 mph62%30.38 "Hg10 mi
6:53 PM59 °FSunny.8 mph62%30.36 "Hg10 mi
5:53 PM61 °FSunny.12 mph58%30.35 "Hg10 mi
4:53 PM63 °FSunny.13 mph56%30.35 "Hg10 mi
3:53 PM63 °FPartly sunny.13 mph58%30.35 "Hg10 mi
2:53 PM66 °FPassing clouds.8 mph47%30.35 "Hg10 mi
1:53 PM65 °FScattered clouds.8 mph47%30.34 "Hg10 mi
12:53 PM64 °FPassing clouds.10 mph50%30.34 "Hg10 mi
11:53 AM63 °FSunny.13 mph50%30.34 "Hg10 mi
10:53 AM61 °FSunny.12 mph54%30.34 "Hg10 mi
9:53 AM59 °FSunny.13 mph60%30.32 "Hg10 mi
8:53 AM57 °FSunny.10 mph62%30.31 "Hg10 mi
7:53 AM56 °FSunny.12 mph62%30.28 "Hg10 mi
6:53 AM54 °FClear.10 mph69%30.26 "Hg10 mi
Weather by CustomWeather, © 2014

See weather overviewHow to use our weather pages